Newburgh, NY

10:00 AM EST on December 18, 2017 (GMT -0500)
Stewart International

Weather History for KSWF - February, 2013

Change the Weather History Date:

Monday, February 25, 2013

  Actual Average Record
Temperature  
Mean Temperature 32 °F -  
Max Temperature 41 °F 39 °F 64 °F (2017)
Min Temperature 23 °F 22 °F 6 °F (2015)
Degree Days  
Heating Degree Days 33    
Moisture  
Dew Point 25 °F    
Average Humidity 75    
Maximum Humidity 93    
Minimum Humidity 57    
Precipitation  
Precipitation 0.00 in - - ()
Sea Level Pressure  
Sea Level Pressure 30.13 in    
Wind  
Wind Speed 3 mph (WNW)    
Max Wind Speed 9 mph    
Max Gust Speed -    
Visibility 14 miles    
Events      
Averages and records for this station are not official NWS values.
T = Trace of Precipitation, MM = Missing Value Source: NWS Daily Summary

Daily Weather History Graph

Daily Weather History Graph

Search for Another Location

Airport or City:

Trip Planner

Search our weather history database for the weather conditions in past years. The results will help you decide how hot, cold, wet, or windy it might be!

Date:

Astronomy

Feb. 25, 2013 Rise Set
Actual Time 6:36 AM EST 5:42 PM EST
Civil Twilight 6:08 AM EST 6:10 PM EST
Nautical Twilight 5:36 AM EST 6:42 PM EST
Astronomical Twilight 5:04 AM EST 7:14 PM EST
Moon 5:53 PM EST (2/25) 6:05 AM EST (2/25)
Length of Visible Light 12h 01m
Length of Day
11h 05m
Full, 100% of the Moon is Illuminated
Feb 25
Full
Feb 25
Full
Mar 4
Last Quarter
Mar 11
New
Mar 19
First Quarter

Hourly Weather History & Observations

Time (EST) Temp. Windchill Dew Point Humidity Pressure Visibility Wind Dir Wind Speed Gust Speed Precip Events Conditions
12:45 AM 24.8 °F - 21.2 °F 86% 29.99 in 10.0 mi Calm Calm - N/A   Clear
1:45 AM 24.8 °F - 21.2 °F 86% 30.00 in 10.0 mi Calm Calm - N/A   Clear
2:45 AM 23.0 °F 17.0 °F 21.2 °F 93% 30.01 in 10.0 mi West 4.6 mph - N/A   Clear
3:45 AM 23.0 °F 15.8 °F 21.2 °F 93% 30.03 in 10.0 mi WNW 5.8 mph - N/A   Clear
5:45 AM 24.8 °F 15.3 °F 21.2 °F 86% 30.05 in 10.0 mi WNW 9.2 mph - N/A   Clear
6:45 AM 23.0 °F - 21.2 °F 93% 30.08 in 20.0 mi Calm Calm - N/A   Clear
7:45 AM 26.6 °F - 23.0 °F 86% 30.10 in 20.0 mi Calm Calm - N/A   Scattered Clouds
8:45 AM 32.0 °F 25.6 °F 28.4 °F 87% 30.11 in 20.0 mi West 6.9 mph - N/A   Mostly Cloudy
9:45 AM 33.8 °F 28.6 °F 28.4 °F 81% 30.13 in 20.0 mi Variable 5.8 mph - N/A   Mostly Cloudy
10:45 AM 37.4 °F - 26.6 °F 65% 30.12 in 20.0 mi Calm Calm - N/A   Mostly Cloudy
11:45 AM 39.2 °F 33.0 °F 28.4 °F 65% 30.13 in 20.0 mi WNW 9.2 mph - N/A   Scattered Clouds
12:45 PM 41.0 °F 35.2 °F 26.6 °F 57% 30.14 in 20.0 mi NW 9.2 mph - N/A   Scattered Clouds
2:45 PM 41.0 °F - 26.6 °F 57% 30.13 in 20.0 mi Calm Calm - N/A   Mostly Cloudy
4:45 PM 41.0 °F 37.1 °F 26.6 °F 57% 30.15 in 20.0 mi ENE 5.8 mph - N/A   Mostly Cloudy
5:45 PM 39.2 °F 35.9 °F 26.6 °F 61% 30.17 in 10.0 mi Variable 4.6 mph - N/A   Mostly Cloudy
6:45 PM 39.2 °F 35.9 °F 26.6 °F 61% 30.20 in 10.0 mi Variable 4.6 mph - N/A   Mostly Cloudy
7:45 PM 37.4 °F - 26.6 °F 65% 30.21 in 10.0 mi Calm Calm - N/A   Mostly Cloudy
8:45 PM 37.4 °F - 28.4 °F 70% 30.21 in 10.0 mi Calm Calm - N/A   Mostly Cloudy
9:45 PM 35.6 °F - 28.4 °F 75% 30.23 in 10.0 mi Calm Calm - N/A   Overcast
10:45 PM 35.6 °F - 28.4 °F 75% 30.24 in 10.0 mi Calm Calm - N/A   Overcast
11:45 PM 35.6 °F - 26.6 °F 70% 30.22 in 10.0 mi Calm Calm - N/A   Overcast